Location: ????????
(55.0097°N, 38.5678°E)
Time: 02:14:25
(UTC+00:00)

NOSS 3-4 (C) - Visible Passes

Search period start: 19 July 2024 00:00
Search period end: 29 July 2024 00:00
Orbit: 814 x 1397 km, 63.4° (Epoch: 04 June)

Date Brightness Start Highest point End Pass type
(mag) Time Alt. Az. Time Alt. Az. Time Alt. Az.
19 Jul 5.2 22:58:39 10° SSE 23:02:12 17° ESE 23:05:55 10° ENE visible
20 Jul 5.5 22:16:58 10° ESE 22:17:53 10° ESE 22:18:48 10° E visible
21 Jul 3.9 00:01:45 10° SSW 00:07:06 49° SE 00:13:00 10° NE visible
21 Jul 4.3 23:18:00 12° S 23:22:27 33° ESE 23:27:50 10° ENE visible
22 Jul 4.8 22:34:25 13° SSE 22:37:57 22° ESE 22:42:26 10° ENE visible
23 Jul 3.4 00:22:14 10° SW 00:27:52 84° SE 00:34:12 10° NE visible
23 Jul 5.2 21:50:48 10° SE 21:53:33 14° ESE 21:56:31 10° ENE visible
23 Jul 3.5 23:38:13 14° SSW 23:43:02 61° SE 23:49:08 10° NE visible
24 Jul 3.9 22:54:34 18° S 22:58:19 42° SE 23:04:02 10° NE visible
25 Jul 4.4 22:10:53 19° SSE 22:13:44 28° ESE 22:18:47 10° ENE visible
25 Jul 3.4 23:58:18 10° SW 00:03:55 83° NW 00:10:18 10° NE visible
26 Jul 4.8 21:27:10 15° SE 21:29:15 19° ESE 21:33:14 10° ENE visible
26 Jul 3.3 23:14:35 17° SW 23:19:00 74° SE 23:25:16 10° NE visible
27 Jul 5.2 20:43:26 10° ESE 20:44:55 11° ESE 20:46:44 10° E visible
27 Jul 3.6 22:30:51 23° SSW 22:34:12 52° SE 22:40:11 10° NE visible
28 Jul 3.9 00:19:25 10° WSW 00:25:05 57° NNW 00:31:30 10° NE visible
28 Jul 4.0 21:47:04 24° SSE 21:49:33 36° ESE 21:55:02 10° ENE visible
28 Jul 3.6 23:34:28 11° WSW 23:40:00 71° NW 23:46:25 10° NE visible
